[Iaude] MPEC V28: 2016 VK [a=1.95,e=0.81,i=6.5,H=22.3]

mpec at si.edu mpec at si.edu
Fri Nov 4 12:02:00 EDT 2016


M.P.E.C. 2016-V28                                Issued 2016 Nov. 4, 15:58 UT
 
     The Minor Planet Electronic Circulars contain information on unusual
         minor planets and routine data on comets.  They are published
    on behalf of Division F of the International Astronomical Union by the
          Minor Planet Center, Smithsonian Astrophysical Observatory,
                          Cambridge, MA 02138, U.S.A.

             Prepared using the Tamkin Foundation Computer Network

                              MPC at CFA.HARVARD.EDU
            URL http://www.minorplanetcenter.net/    ISSN 1523-6714


                                    2016 VK
 
Observations:
     K16V00K* C2016 11 02.25764 02 40 36.36 +11 11 47.5          19.9 VqEV028G96
     K16V00K  C2016 11 02.26359 02 40 34.81 +11 11 32.1          20.4 VqEV028G96
     K16V00K  C2016 11 02.26949 02 40 33.33 +11 11 18.2          20.6 VqEV028G96
     K16V00K HC2016 11 02.30622 02 40 24.05 +11 09 44.9                oEV028691
     K16V00K HC2016 11 02.30851 02 40 23.37 +11 09 38.8                oEV028691
     K16V00K HC2016 11 02.31080 02 40 22.87 +11 09 33.3                oEV028691
     K16V00K KC2016 11 03.05248 02 37 15.53 +10 37 14.9                qEV028J95
     K16V00K KC2016 11 03.07041 02 37 10.72 +10 36 25.3          19.9 RqEV028J95
     K16V00K  C2016 11 03.31794 02 36 05.99 +10 25 21.1          20.2 RoEV028926
     K16V00K  C2016 11 03.32498 02 36 04.05 +10 25 01.6          20.4 RoEV028926
     K16V00K  C2016 11 03.33332 02 36 01.73 +10 24 38.6          20.7 RoEV028926
     K16V00K KC2016 11 04.19601 02 32 04.72 +09 43 19.5          19.5 RqEV028H36
     K16V00K KC2016 11 04.20444 02 32 02.28 +09 42 54.5          20.1 RqEV028H36
     K16V00K KC2016 11 04.21288 02 31 59.70 +09 42 30.0          20.1 RqEV028H36
     K16V00K  C2016 11 04.22598 02 31 56.34 +09 41 54.0          20.4 RoEV028926
     K16V00K  C2016 11 04.23187 02 31 54.59 +09 41 36.6          20.2 RoEV028926
     K16V00K  C2016 11 04.23699 02 31 53.08 +09 41 21.5          20.9 RoEV028926
     K16V00K  C2016 11 04.54519 02 30 23.62 +09 25 45.3          20.2 RoEV028300
     K16V00K  C2016 11 04.54889 02 30 22.48 +09 25 34.5          20.3 RoEV028300
     K16V00K  C2016 11 04.55260 02 30 21.41 +09 25 22.4          20.2 RoEV028300
     K16V00K  C2016 11 04.55630 02 30 20.20 +09 25 10.0          20.0 RoEV028300
 
Observer details:
300 Bisei Spaceguard Center--BATTeRS.  Observers S. Okumura, T. Nimura.  1.0-m
    f/3.0 reflector + CCD.
691 Steward Observatory, Kitt Peak.  Observer M. T. Read.  0.9-m f/3 reflector
    + CCD.
926 Tenagra II Observatory.  Observers M. Schwartz, P. R. Holvorcem.  Measurer
    M. Schwartz.  0.81-m f/7 Ritchey-Chretien + CCD.
G96 Mt. Lemmon Survey.  Observer A. D. Grauer.  Measurers E. J. Christensen,
    D. C. Fuls, A. R. Gibbs, A. D. Grauer, J. A. Johnson, R. A. Kowalski,
    S. M. Larson, G. J. Leonard, R. G. Matheny, R. L. Seaman, F. C. Shelly.
    1.5-m reflector + 10K CCD.
H36 Sandlot Observatory, Scranton.  Observer G. Hug.  0.56-m reflector + CCD.
J95 Great Shefford.  Observer P. Birtwhistle.  0.40-m f/6.0 Schmidt-Cassegrain
    + CCD.
 
Orbital elements:
2016 VK                                                  Earth MOID = 0.0426 AU
Epoch 2016 July 31.0 TT = JDT 2457600.5                 MPC
M 302.37044              (2000.0)            P               Q
n   0.36152307     Peri.  315.41865     -0.97133013     -0.23032967
a   1.9515456      Node   211.40475     +0.23716914     -0.92176536
e   0.8077246      Incl.    6.48726     +0.01638813     -0.31192445
P   2.73           H   22.3           G   0.15           U   8
Residuals in seconds of arc
161102 G96  0.5+  0.5+    161103 J95  0.0   0.7-    161104 926  0.2+  0.5-
161102 G96  0.1-  0.0     161103 926  0.2+  0.4+    161104 926  0.2+  0.4-
161102 G96  0.1+  0.9+    161103 926  0.3+  0.3+    161104 926  0.3+  0.2-
161102 691  0.6+  0.4-    161103 926  0.1+  0.4+    161104 300  0.3+  0.5+
161102 691  0.8-  0.7-    161104 H36  0.2-  1.1-    161104 300  0.1+  1.0+
161102 691  0.4+  0.5-    161104 H36  0.6+  1.0-    161104 300  1.0+  0.3+
161103 J95  0.3+  0.5+    161104 H36  0.6-  0.4-    161104 300  0.3-  0.7-

Ephemeris:
2016 VK                  a,e,i = 1.95, 0.81, 6                   q = 0.3752
Date    TT    R. A. (2000) Decl.     Delta      r     Elong.  Phase     V
2016 10 05    03 23 30.0 +18 59 12   0.7694  1.6571   138.6    23.5    23.9
...
2016 10 20    03 13 27.6 +16 48 22   0.5101  1.4770   156.3    15.7    22.5
...
2016 10 28    02 57 56.9 +14 08 52   0.3866  1.3743   168.3     8.4    21.5
...
2016 11 03    02 37 29.8 +10 39 56   0.3027  1.2940   175.5     3.4    20.6
2016 11 04    02 33 00.0 +09 53 17   0.2897  1.2803   174.4     4.3    20.5
2016 11 05    02 28 06.7 +09 02 12   0.2769  1.2666   172.6     5.8    20.5
...
2016 11 11    01 47 58.1 +01 51 40   0.2078  1.1822   155.4    20.4    20.3
...
2016 11 19    00 06 37.7 -15 41 30   0.1488  1.0646   117.2    55.6    20.3
...
2016 12 04    19 24 21.5 -35 52 02   0.2120  0.8280    37.7   133.3    24.6

A. U. Tomatic                (C) Copyright 2016 MPC           M.P.E.C. 2016-V28




More information about the Iaude mailing list